Weather History for Mobridge, SD

Change the Weather History Date:

Sunday, November 18, 2012

  Actual Average Record
Temperature  
Mean Temperature 43 °F 30 °F  
Max Temperature 63 °F 41 °F 66 °F (1949)
Min Temperature 23 °F 20 °F 0 °F (1947)
Degree Days  
Heating Degree Days 22 35  
Month to date heating degree days 564 533  
Since 1 July heating degree days 1321 1307  
Cooling Degree Days 0 0  
Month to date cooling degree days 0 0  
Year to date cooling degree days 866 644  
Moisture  
Dew Point 29 °F    
Average Humidity 68    
Maximum Humidity 100    
Minimum Humidity 36    
Precipitation  
Precipitation 0.00 in 0.01 in 0.21 in (1981)
Month to date precipitation 0.33 0.41  
Year to date precipitation 13.14 17.36  
Snow  
Snow 0.00 in - - ()
Month to date snowfall 0.5  
Since 1 July snowfall 0.5  
Snow Depth 0.00 in    
Sea Level Pressure  
Sea Level Pressure 29.90 in    
Wind  
Wind Speed 6 mph (SE)    
Max Wind Speed 21 mph    
Max Gust Speed 24 mph    
Visibility 5 miles    
Events Fog    
T = Trace of Precipitation, MM = Missing Value Source: NWS Daily Summary

Daily Weather History Graph

Daily Weather History Graph

Search for Another Location

Airport:

Trip Planner

Search our weather history database for the weather conditions in past years. The results will help you decide how hot, cold, wet, or windy it might be!

Date:

Astronomy

Nov. 18, 2012 Rise Set
Actual Time 7:45 AM CST 5:07 PM CST
Civil Twilight 7:13 AM CST 5:40 PM CST
Nautical Twilight 6:36 AM CST 6:16 PM CST
Astronomical Twilight 6:01 AM CST 6:51 PM CST
Moon 12:10 PM CST (11/18) 10:33 PM CST (11/18)
Length of Visible Light 10h 27m
Length of Day
9h 22m
Waxing Crescent, 30% of the Moon is Illuminated
Nov 18
Waxing Crescent
Nov 20
First Quarter
Nov 28
Full
Dec 6
Last Quarter
Dec 13
New

Hourly Weather History & Observations

Time (CST) Temp. Windchill Dew Point Humidity Pressure Visibility Wind Dir Wind Speed Gust Speed Precip Events Conditions
12:52 AM 30.0 °F - 28.9 °F 96% 29.99 in 7.0 mi Calm Calm - N/A   Clear
1:48 AM 26.6 °F - 24.8 °F 93% 29.94 in 1.8 mi Calm Calm - N/A   Partly Cloudy
1:52 AM 26.1 °F - 25.0 °F 96% 29.99 in 0.8 mi Calm Calm - N/A   Mist
2:07 AM 24.8 °F - 24.8 °F 100% 29.94 in 2.5 mi Calm Calm - N/A   Scattered Clouds
2:28 AM 24.8 °F - 24.8 °F 100% 29.94 in 1.0 mi Calm Calm - N/A   Mist
2:35 AM 24.8 °F - 23.0 °F 93% 29.94 in 0.5 mi Calm Calm - N/A Fog Light Freezing Fog
2:52 AM 24.1 °F - 23.0 °F 96% 29.98 in 0.5 mi Calm Calm - N/A Fog Light Freezing Fog
2:59 AM 23.0 °F - 23.0 °F 100% 29.93 in 2.0 mi Calm Calm - N/A   Mostly Cloudy
3:09 AM 24.8 °F 20.5 °F 24.8 °F 100% 29.93 in 2.5 mi ESE 3.5 mph - N/A   Scattered Clouds
3:18 AM 24.8 °F 19.1 °F 23.0 °F 93% 29.93 in 3.0 mi East 4.6 mph - N/A   Partly Cloudy
3:38 AM 24.8 °F 17.9 °F 24.8 °F 100% 29.94 in 2.5 mi SE 5.8 mph - N/A   Scattered Clouds
3:42 AM 26.6 °F 21.2 °F 24.8 °F 93% 29.94 in 3.0 mi SSE 4.6 mph - N/A   Mostly Cloudy
3:49 AM 26.6 °F 22.6 °F 24.8 °F 93% 29.94 in 1.8 mi SE 3.5 mph - N/A   Mostly Cloudy
3:52 AM 27.0 °F 23.0 °F 26.1 °F 96% 29.98 in 0.8 mi SSE 3.5 mph - N/A   Mist
4:52 AM 25.0 °F - 25.0 °F 100% 29.96 in 0.2 mi Calm Calm - N/A Fog Light Freezing Fog
5:08 AM 26.6 °F 21.2 °F 24.8 °F 93% 29.92 in 2.0 mi SE 4.6 mph - N/A   Overcast
5:26 AM 26.6 °F 22.6 °F 26.6 °F 100% 29.92 in 0.8 mi ESE 3.5 mph - N/A   Overcast
5:52 AM 26.1 °F - 26.1 °F 100% 29.96 in 0.2 mi Calm Calm - N/A Fog Light Freezing Fog
6:52 AM 24.1 °F - 23.0 °F 96% 29.95 in 0.5 mi Calm Calm - N/A Fog Light Freezing Fog
7:45 AM 23.0 °F 17.0 °F 23.0 °F 100% 29.88 in 1.0 mi SSE 4.6 mph - N/A   Mist
7:52 AM 24.1 °F 18.2 °F 23.0 °F 96% 29.94 in 1.8 mi East 4.6 mph - N/A   Partly Cloudy
7:59 AM 24.8 °F 20.5 °F 24.8 °F 100% 29.88 in 7.0 mi SE 3.5 mph - N/A   Clear
8:13 AM 24.8 °F 20.5 °F 24.8 °F 100% 29.88 in 1.8 mi South 3.5 mph - N/A   Partly Cloudy
8:20 AM 24.8 °F - 24.8 °F 100% 29.88 in 0.2 mi Calm Calm - N/A Fog Light Freezing Fog
8:52 AM 28.0 °F - 27.0 °F 96% 29.94 in 0.8 mi Calm Calm - N/A   Mist
8:58 AM 28.4 °F - 28.4 °F 100% 29.88 in 1.8 mi Calm Calm - N/A   Scattered Clouds
9:06 AM 30.2 °F 25.4 °F 28.4 °F 93% 29.88 in 3.0 mi SSE 4.6 mph - N/A   Partly Cloudy
9:52 AM 33.1 °F 26.9 °F 33.1 °F 100% 29.91 in 5.0 mi SSE 6.9 mph - N/A   Clear
10:52 AM 37.9 °F 32.1 °F 36.0 °F 93% 29.91 in 10.0 mi SSE 8.1 mph - N/A   Clear
11:52 AM 48.0 °F - 39.0 °F 71% 29.87 in 10.0 mi SE 9.2 mph - N/A   Clear
12:52 PM 55.0 °F - 39.0 °F 55% 29.82 in 10.0 mi SSE 15.0 mph - N/A   Clear
1:52 PM 57.9 °F - 37.0 °F 46% 29.80 in 10.0 mi SSE 19.6 mph - N/A   Clear
2:52 PM 61.0 °F - 37.9 °F 42% 29.78 in 10.0 mi SSE 13.8 mph - N/A   Clear
3:52 PM 62.1 °F - 35.1 °F 37% 29.77 in 10.0 mi South 11.5 mph - N/A   Clear
4:52 PM 55.9 °F - 35.1 °F 45% 29.80 in 10.0 mi SSE 10.4 mph - N/A   Clear
5:52 PM 48.9 °F - 35.1 °F 59% 29.82 in 10.0 mi SSE 6.9 mph - N/A   Clear
6:52 PM 48.9 °F - 35.1 °F 59% 29.82 in 10.0 mi East 11.5 mph - N/A   Clear
7:52 PM 46.0 °F 41.0 °F 36.0 °F 68% 29.83 in 10.0 mi East 10.4 mph - N/A   Clear
8:52 PM 41.0 °F 35.8 °F 34.0 °F 76% 29.85 in 10.0 mi NW 8.1 mph - N/A   Clear
9:52 PM 39.0 °F 34.0 °F 34.0 °F 82% 29.86 in 10.0 mi NNE 6.9 mph - N/A   Clear
10:52 PM 37.0 °F - 33.1 °F 86% 29.86 in 10.0 mi Calm Calm - N/A   Clear
11:52 PM 36.0 °F 29.6 °F 33.1 °F 89% 29.88 in 10.0 mi North 8.1 mph - N/A   Clear